Weather in Zunyi

China     27°42′00″N   106°55′39″E
temp.,
°C
wind,
m/s
gust,
m/s
humid.,
%
clouds,
%
prec.,
mm/h
press.,
hPa
HPBL,
m
17 may, tue
tue1723:00+14nnw118378 0.0 101710
02:00+13ene1185100 0.0 101610
05:00+13nne1188100 0.0 101611
08:00+14ene1187100 0.0 101768
11:00+18se1271100 0.0 1015767
14:00+20ne2364100 0.1 10131087
17:00+16n3589100 0.7 1012172
20:00+15nne3689100 0.8 1013257
18 may, wed
wed1823:00+15ne2589100 0.0 1015200
02:00+14ne3590100 0.0 1014233
05:00+14ne3892100 0.4 1013446
08:00+13ne3795100 4.9 1015424
11:00+14ne3592100 0.8 1015312
14:00+14nne3492100 1.3 1013341
17:00+13nne2496100 1.5 1013298
20:00+13nne1397100 4.4 1015177
19 may, thu
thu1923:00+13nne1297100 3.4 101796
02:00+13ne1197100 5.1 101562
05:00+13nne1197100 1.8 101564
08:00+13ne1197100 6.1 101672
11:00+13ne0195100 2.5 1016125
14:00+14ene0196100 3.9 1014110
17:00+14ene1196100 0.6 101387
20:00+13sse0097100 0.7 101518
20 may, fri
fri2023:00+13nw0097100 0.8 101619
02:00+13nw1197100 1.3 101415
05:00+13wnw1196100 0.1 101315
08:00+13wsw1196100 2.4 101573
11:00+14nw1191100 2.4 1015246
14:00+14w0194100 4.2 1013146
17:00+15sw0191100 0.0 1011184
20:00+14ssw119494 0.0 101210
21 may, sat
sat2123:00+14sw1194100 0.0 101311
02:00+14nnw0094100 0.0 101111
05:00+13wsw119499 0.0 101110
08:00+14ssw2291100 0.0 1011101
11:00+17ssw2182100 0.1 1011517
14:00+17s228485 0.1 1009309
17:00+20sse227218 0.0 1007675
20:00+17s11855 0.0 100811